パンスターズ彗星

476P/PanSTARRS (2024)

English version
Home page
Updated on February 21, 2024

---------------------------------------------------------------------

・ プロフィール

符号 476P/2023 W2
検出日 2023年11月19日
検出光度 20.4等
検出者 J. Maikner (New Ringgold, PA, USA)

・ 軌道要素

Epoch 2023 Sept. 13.0 TT = JDT 2460200.5                                        
T 2024 Oct. 16.72401 TT                                 Rudenko                 
q   3.1177546            (2000.0)            P               Q                  
n   0.09361687     Peri.   46.89129     -0.20832075     -0.93918178             
a   4.8035979      Node    57.09182     +0.77607546     -0.32861325             
e   0.3509543      Incl.   18.97777     +0.59523890     +0.09975427             
P  10.5                                                                         
>From 67 observations 2015 Jan. 14-2023 Dec. 16, mean residual 0".7.             

・ 光度変化

        m1 = 12.5 + 5 logΔ + 10.0 log r

---------------------------------------------------------------------

軌道要素はM.P.E.C. 2024-B134に掲載されたものです。
光度グラフはComet for Windowsで作成したものです。

---------------------------------------------------------------------

Copyright(C) Seiichi Yoshida (comet@aerith.net). All rights reserved.